Humidity-temperature Sensor

Selected Measurement Type: Relative Humidity

 
Relative Humidity [%]     6 entries per hour
Showing data from 9/14/2019 (00:00:00 Z) to 9/13/2019 (00:01:00 Z)
Previous Next [ Day | 3-Days | 7-Days ]
First Last
Prev [ Day | 3-Days | 7-Days ] Next
First Last

Start Time:     :
End Time:     :     
Time (in GMT) :00 :50 :40 :30 :20 :10
Previous Next [ Day | 3-Days | 7-Days ]
First Last
Prev [ Day | 3-Days | 7-Days ] Next
First Last


123 => good data
MM => data is determined as missing
-- => data not received/configured
Back to Top Back to Top
9/14/2019 00:00 to 23:10 89.11 90.04 89.97 88.81 90.44 90.06
9/13/2019 23:00 to 22:10 89.17 88.68 93.29 94.09 91.35 91.69
9/13/2019 22:00 to 21:10 88.66 88.75 89.81 88.87 89.77 92.94
9/13/2019 21:00 to 20:10 93.82 93.02 91.16 90.44 85.69 86.61
9/13/2019 20:00 to 19:10 87.56 86.27 87.17 83.18 83.15 83.89
9/13/2019 19:00 to 18:10 83.38 82.50 83.58 83.83 82.95 83.26
9/13/2019 18:00 to 17:10 83.44 84.81 84.30 87.11 86.82 87.23
9/13/2019 17:00 to 16:10 88.79 88.23 88.40 89.17 89.54 87.05
9/13/2019 16:00 to 15:10 83.28 86.06 87.05 88.21 88.72 89.34
9/13/2019 15:00 to 14:10 86.57 86.84 89.71 90.71 88.66 88.64
9/13/2019 14:00 to 13:10 87.47 85.26 85.61 85.08 84.63 85.67
9/13/2019 13:00 to 12:10 85.57 87.43 88.77 86.98 84.26 83.85
9/13/2019 12:00 to 11:10 86.16 86.68 87.41 86.18 86.27 84.67
9/13/2019 11:00 to 10:10 83.93 83.67 84.69 84.30 84.38 84.96
9/13/2019 10:00 to 9:10 86.23 87.00 87.23 86.86 86.39 86.53
9/13/2019 09:00 to 8:10 86.06 86.27 86.21 84.55 85.00 84.55
9/13/2019 08:00 to 7:10 86.00 85.63 85.73 84.51 83.54 84.46
9/13/2019 07:00 to 6:10 86.80 85.59 84.46 84.71 83.93 84.87
9/13/2019 06:00 to 5:10 85.82 85.43 84.46 85.49 84.94 84.59
9/13/2019 05:00 to 4:10 84.77 85.32 85.59 85.92 84.32 84.57
9/13/2019 04:00 to 3:10 85.53 85.41 84.90 83.56 83.99 85.41
9/13/2019 03:00 to 2:10 84.30 83.87 83.85 84.46 84.77 84.30
9/13/2019 02:00 to 1:10 83.73 84.28 84.32 83.95 83.99 84.90
9/13/2019 01:00 to 0:10 85.22 84.87 85.20 85.32 85.32 86.02